Hourly Data Report for July 24, 2020

EUREKA A
NUNAVUT
Current Station Operator: NAVCAN

79°59'40.000" N
85°48'43.000" W
82.90 m
2401208
WEU

Download Data

Hourly Data (July 2020)
Hourly Data Report for July 24, 2020
TIME Temp Definition
°C
Dew Point Definition
°C
Rel Hum Definition
%
Wind Dir Definition
10's deg

Wind Spd Definition
km/h
Visibility Definition
km
Stn Press Definition
kPa
Hmdx Definition


Wind Chill Definition


Weather Definition


00:00 13.4 3.3 50 27 27 LegendMM 100.12     LegendNANA
01:00 12.9 3.0 51 28 31 LegendMM 100.14     LegendNANA
02:00 12.6 3.3 53 28 28 LegendMM 100.18     LegendNANA
03:00 13.7 3.4 50 28 26 LegendMM 100.20     LegendNANA
04:00 14.1 3.4 48 28 23 LegendMM 100.21     LegendNANA
05:00 14.0 2.5 46 28 25 LegendMM 100.23     LegendNANA
06:00 13.0 2.4 48 28 23 LegendMM 100.27     LegendNANA
07:00 13.2 2.0 47 27 33 LegendMM 100.26     LegendNANA
08:00 14.0 2.6 46 27 33 LegendMM 100.25     LegendNANA
09:00 14.1 2.4 45 27 32 LegendMM 100.24     LegendNANA
10:00 15.0 2.8 44 27 28 LegendMM 100.24     LegendNANA
11:00 14.9 2.3 42 28 34 LegendMM 100.20     LegendNANA
12:00 14.8 2.6 43 27 30 LegendMM 100.20     LegendNANA
13:00 14.2 2.7 46 27 36 LegendMM 100.18     LegendNANA
14:00 15.2 2.7 43 27 32 LegendMM 100.21     LegendNANA
15:00 15.7 3.0 42 27 25 LegendMM 100.20     LegendNANA
16:00 15.7 2.9 42 27 33 LegendMM 100.21     LegendNANA
17:00 16.0 3.0 41 27 22 LegendMM 100.19     LegendNANA
18:00 15.2 2.6 42 26 23 LegendMM 100.19     LegendNANA
19:00 15.7 3.1 43 26 19 LegendMM 100.17     LegendNANA
20:00 15.7 3.1 43 27 17 LegendMM 100.14     LegendNANA
21:00 15.7 3.3 43 27 19 LegendMM 100.15     LegendNANA
22:00 15.1 3.3 45 28 12 LegendMM 100.15     LegendNANA
23:00 14.8 3.0 45 27 17 LegendMM 100.14     LegendNANA

Notes on Data Quality.

Legend

  • E = Estimated
  • M = Missing
  • NA = Not Available*
  • [empty] = Indicates an unobserved value
Date modified: